Location: Beutels
(47.8767°N, 9.8584°E)
Time: 00:51:23
(UTC+00:00)

BREEZE-M DEB (TANK) - Pass Details

Date: 19 May 2025
Orbit: 282 x 12171 km, 49.5° (Epoch: 22 June)

Event Time Altitude Azimuth Distance (km) Brightness Sun altitude
Rises 20:16:34 0° 263° (W) 12,237 9.7 -11.0°
Reaches altitude 10° 20:29:21 10° 266° (W) 8,884 8.9 -12.5°
Maximum altitude 20:51:37 81° 357° (N) 1,554 4.6 -14.7°
Drops below altitude 10° 20:56:54 10° 85° (E) 2,394 5.3 -15.2°
Enters shadow 20:57:51 - 86° (E) 2,769 5.6 -15.3°
